Location: *
(2.5500°S, 65.9667°W)
Time: 13:07:48
(UTC+00:00)

H-2A R/B - Pass Details

Date: 07 June 2022
Orbit: 526 x 647 km, 98.3° (Epoch: 02 July)

Event Time Altitude Azimuth Distance (km) Brightness Sun altitude
Exits shadow 00:17:42 11° 16° (NNE) 1,887 5.1 -27.4°
Drops below altitude 10° 00:17:53 10° 15° (NNE) 1,956 5.2 -27.5°
Sets 00:20:11 0° 5° (N) 2,835 6.2 -28.0°
